Terminal Aerodrome Forecast
Issued by NWS Charleston, SC

Home | Current Version | Previous Version | Text Only | Print | Product List | Glossary On
Versions: 1 2 3 4 5 6 7 8 9 10 11 12 13 14 15 16 17 18 19 20 21 22 23 24 25
000
FTUS42 KCHS 310751 AAD
TAFCHS
TAF AMD
KCHS 310751Z 3108/0106 VRB05KT P6SM VCSH SCT010 BKN035
      TEMPO 3108/3112 1SM +SHRA SCT006 BKN020
     FM311500 16009KT P6SM SCT020 BKN040
     FM010000 20005KT P6SM SCT015=

USA.gov is the U.S. government's official web portal to all federal, state and local government web resources and services.